[[{"header":{"parameterUnit":"m.s-1","parameterCategory":1,"la1":30.2991,"la2":30.254,"lo1":-89.0895,"lo2":-89.0444,"dy":0.0017,"dx":0.0017,"nx":28,"ny":28,"refTime":"2024-09-26T09:00:00:Z","depth":0,"parameterNumber":2,"parameterNumberName":"U-component_of_WINDS"},"data":[0,0,0,0,0,0,0,0,0,0,0,0,0,0,0,0,0,0,0,0,0,0,0,0,0,0,0,0,0,0,0,0,0,0,0,0,0,0,0,0,0,0,0,0,0,0,0,0,0,0,0,0,0,0,0,0,0,0,5.7594,5.7595,0,5.765,5.7651,5.7651,5.7576,5.7573,5.757,5.7568,5.7626,5.763,5.7634,0,0,0,0,0,0,0,0,0,0,0,0,0,5.7425,5.7428,5.7594,5.7595,5.7596,5.765,5.7651,5.7652,5.7576,5.7573,5.7569,5.7566,5.7625,5.763,5.7635,0,0,0,0,0,0,0,0,0,0,0,0,0,5.7491,5.7429,5.7594,5.7565,5.7562,5.765,5.7651,5.7652,5.7577,5.7573,5.7569,5.7565,5.7624,5.7629,5.7636,5.7755,0,0,5.7654,5.7657,0,0,0,0,0,0,0,0,5.7488,5.7498,5.7568,5.7567,5.7565,5.7602,5.7612,5.7687,5.7578,5.7571,5.7568,5.7563,5.7622,5.7628,5.7647,5.7758,5.776,5.7655,5.7659,5.7661,5.7663,0,0,0,0,0,0,0,5.7483,5.7495,5.7616,5.7569,5.7567,5.7549,5.7554,5.7626,5.7619,5.7572,5.7566,5.7574,5.762,5.7641,5.7648,5.7761,5.7655,5.766,5.7664,5.7666,5.7975,5.7979,0,0,0,0,0,0,5.7482,5.7491,5.7615,5.7618,5.7515,5.7556,5.7561,5.7594,5.7618,5.7617,5.7577,5.757,5.7633,5.7641,5.765,5.7792,5.7661,5.7667,5.7671,5.797,5.7976,5.798,0,0,0,0,0,0,5.7478,5.7493,5.7612,5.7553,5.7567,5.7563,5.76,5.7597,5.7619,5.7622,5.762,5.7601,5.763,5.7641,5.773,5.7793,5.767,5.7675,5.7965,5.7972,5.7978,5.8078,0,0,0,0,0,0,5.7474,5.7493,5.7537,5.7555,5.7571,5.7691,5.7604,5.7601,5.7629,5.762,5.7643,5.7643,5.7628,5.7721,5.7736,5.7799,5.768,5.7959,5.7968,5.7976,5.8069,5.8087,5.8103,0,0,0,0,0,5.7468,5.7563,5.754,5.7555,5.7626,5.7695,5.7704,5.7683,5.7635,5.768,5.7683,5.7643,5.7784,5.7731,5.7747,5.7813,5.7955,5.7965,5.7975,5.8061,5.8083,5.8102,0,0,0,0,0,0,5.7553,5.7565,5.7539,5.7643,5.7669,5.7682,5.7738,5.7707,5.7748,5.7738,5.7711,5.7717,5.7812,5.7821,5.7762,5.7931,5.7861,5.7875,5.7921,5.7942,5.7959,5.7955,5.7685,0,0,0,0,0,5.7584,5.7638,5.7646,5.7737,5.7751,5.7743,5.7772,5.7754,5.7779,5.779,5.7798,5.7825,5.7876,5.791,5.7956,5.807,5.8074,5.8123,5.814,5.8154,5.8167,5.8229,5.8251,5.8014,5.8014,5.8013,0,0,5.7649,5.7662,5.7698,5.7754,5.7772,5.7829,5.7752,5.7816,5.7858,5.78,5.7884,5.7892,5.792,5.8022,5.8067,5.8033,5.8233,5.8167,5.8178,5.8183,5.8241,5.8264,5.8284,5.802,5.8019,5.8018,0,0,5.7796,5.7811,5.7888,5.7908,5.7935,5.793,5.7949,5.7967,5.797,5.8054,5.8011,5.8062,5.8149,5.8171,5.8194,5.8351,5.8316,5.8367,5.8456,5.8516,5.8535,5.8552,5.8608,5.8629,5.8379,5.838,5.838,0,5.7872,5.7956,5.7932,5.7999,5.8026,5.7976,5.8055,5.8075,5.8117,5.8137,5.8097,5.8206,5.8222,5.8329,5.8367,5.8387,5.8409,5.8364,5.8534,5.8551,5.8566,5.8619,5.8641,5.8386,5.8385,5.8384,5.8384,0,5.805,5.8109,5.8169,5.821,5.8244,5.8317,5.8304,5.8341,5.8321,5.832,5.8407,5.8424,5.8473,5.8497,5.8478,5.8603,5.858,5.8538,5.8468,5.8595,5.8645,5.8665,5.8394,5.8392,5.839,5.8389,0,0,5.8251,5.8279,5.8302,5.8321,5.8348,5.8394,5.8465,5.8513,5.8546,5.8577,5.8636,5.8712,5.8673,5.8699,5.8682,5.8736,5.886,5.8687,5.8687,5.8719,5.8999,5.9031,5.9055,5.8837,5.8841,5.8844,5.8997,0,5.8398,5.8521,5.8502,5.8621,5.8676,5.8629,5.8691,5.8715,5.8717,5.8764,5.8765,5.882,5.8764,5.878,5.8831,5.8834,5.8916,5.8823,5.8893,5.8896,5.8888,5.9081,5.9114,5.9257,5.9016,5.902,5.9022,0,5.8586,5.8624,5.8748,5.8768,5.8791,5.8847,5.889,5.8936,5.8963,5.896,5.899,5.8963,5.9035,5.8964,5.9064,5.9001,5.9029,5.9035,5.9041,5.9046,5.8967,5.9092,5.9303,5.9324,5.9052,5.905,5.9048,0,5.8722,5.8804,5.8889,5.8906,5.8931,5.8972,5.8985,5.9007,5.9038,5.9076,5.9096,5.9142,5.9168,5.9205,5.9192,5.9142,5.9295,5.9223,5.9296,5.9296,5.933,5.9328,5.9548,5.9348,5.9348,5.9347,5.9347,0,5.8888,5.8966,5.895,5.9003,5.9089,5.9067,5.9153,5.916,5.9181,5.9235,5.9198,5.9249,5.9229,5.928,5.927,5.9355,5.9367,5.9367,5.9364,5.937,5.9371,5.9388,5.9378,5.9353,5.9352,5.9351,5.935,0,5.9054,5.9046,5.9136,5.9153,5.9159,5.9222,5.9236,5.9286,5.9285,5.9353,5.9368,5.9366,5.9424,5.9415,5.9479,5.9472,5.9578,5.9563,5.9569,5.9565,5.9639,5.9633,5.9878,5.991,5.9689,5.9691,5.9693,0,5.9161,5.922,5.9243,5.9276,5.9291,5.9345,5.9376,5.9357,5.9392,5.9427,5.9473,5.9527,5.9569,5.9664,5.9669,5.9718,5.9703,5.9786,5.971,5.9716,5.9705,5.9702,5.9708,5.9801,5.9804,5.9806,5.9807,0,5.9351,5.9345,5.9391,5.9436,5.9474,5.9509,5.9541,5.957,5.9554,5.9595,5.9653,5.9686,5.9751,5.9806,5.9852,5.9865,5.9835,5.9831,5.9851,5.9858,5.986,5.986,5.961,5.9826,5.9824,5.9822,5.9821,5.9821,5.9491,5.9542,5.9566,5.9619,5.9641,5.9671,5.9719,5.9723,5.9771,5.9823,5.9809,5.9875,5.9902,5.9961,5.998,6.0032,6.0001,6.003,6.0037,6.0044,6.0053,5.9852,6.004,6.004,6.0039,6.0039,6.0038,0,5.968,5.9694,5.9743,5.9788,5.983,5.9796,5.983,5.9867,5.9926,5.9953,5.9995,6.0063,6.0116,6.0125,6.0176,6.0216,6.0203,6.023,6.0227,6.0231,6.0077,6.0055,6.024,6.024,6.024,6.024,6.024,6.024,5.9784,5.9868,5.9864,5.9959,5.9972,6.0037,6.0059,6.0087,6.0108,6.0185,6.0229,6.0235,6.0255,6.0307,6.0355,6.0356,6.0377,6.041,6.0406,6.0262,6.0242,6.0223,6.0202,6.0414,6.0414,6.0555,6.0556,6.0557]},{"header":{"parameterUnit":"m.s-1","parameterCategory":1,"la1":30.2991,"la2":30.254,"lo1":-89.0895,"lo2":-89.0444,"dy":0.0017,"dx":0.0017,"nx":28,"ny":28,"refTime":"2024-09-26T09:00:00:Z","depth":0,"parameterNumber":3,"parameterNumberName":"V-component_of_WINDS"},"data":[0,0,0,0,0,0,0,0,0,0,0,0,0,0,0,0,0,0,0,0,0,0,0,0,0,0,0,0,0,0,0,0,0,0,0,0,0,0,0,0,0,0,0,0,0,0,0,0,0,0,0,0,0,0,0,0,0,0,1.6264,1.6265,0,1.6349,1.635,1.6351,1.6381,1.6381,1.6381,1.638,1.6467,1.647,1.6473,0,0,0,0,0,0,0,0,0,0,0,0,0,1.6127,1.6129,1.6264,1.6265,1.6266,1.6349,1.635,1.6352,1.6381,1.6381,1.638,1.638,1.6467,1.647,1.6473,0,0,0,0,0,0,0,0,0,0,0,0,0,1.6196,1.613,1.6264,1.6291,1.6294,1.6349,1.6351,1.6352,1.6381,1.6381,1.638,1.638,1.6466,1.6469,1.6473,1.6507,0,0,1.6485,1.6487,0,0,0,0,0,0,0,0,1.6192,1.6201,1.6286,1.6289,1.6293,1.6354,1.6334,1.6404,1.6381,1.6348,1.638,1.638,1.643,1.6437,1.6454,1.6511,1.6515,1.6486,1.6488,1.649,1.6491,0,0,0,0,0,0,0,1.6188,1.6198,1.6298,1.6287,1.6292,1.6299,1.6308,1.6347,1.6391,1.6351,1.6354,1.6363,1.6432,1.645,1.6456,1.6516,1.6486,1.6489,1.6491,1.6493,1.6604,1.6605,0,0,0,0,0,0,1.6178,1.6194,1.6295,1.6301,1.6241,1.6302,1.6312,1.6335,1.6391,1.6399,1.6364,1.6364,1.6444,1.6452,1.6459,1.6502,1.649,1.6493,1.6496,1.6604,1.6604,1.6605,0,0,0,0,0,0,1.6175,1.6187,1.6292,1.6248,1.6262,1.6305,1.633,1.6337,1.6355,1.64,1.6408,1.6374,1.6444,1.6454,1.6495,1.6506,1.6495,1.6499,1.6603,1.6604,1.6605,1.6588,0,0,0,0,0,0,1.6171,1.6186,1.6199,1.6248,1.6264,1.6326,1.6331,1.6339,1.6362,1.6364,1.6412,1.6419,1.6444,1.6489,1.6499,1.6511,1.6502,1.6602,1.6603,1.6604,1.6588,1.6588,1.6589,0,0,0,0,0,1.6166,1.6192,1.62,1.6212,1.6282,1.6327,1.6336,1.6364,1.6363,1.6376,1.6405,1.6418,1.6503,1.6493,1.6504,1.6518,1.6602,1.6603,1.6604,1.6588,1.6588,1.6589,0,0,0,0,0,0,1.6144,1.6198,1.6208,1.625,1.6284,1.6332,1.635,1.6363,1.6398,1.6398,1.6431,1.6441,1.6479,1.6503,1.6491,1.6553,1.6553,1.6557,1.6536,1.6537,1.6537,1.6531,1.6505,0,0,0,0,0,1.6143,1.6175,1.6222,1.6254,1.627,1.6307,1.6328,1.6346,1.6382,1.6396,1.6427,1.6461,1.6496,1.6518,1.6552,1.6591,1.6602,1.6606,1.6606,1.6606,1.6609,1.6631,1.6633,1.661,1.661,1.6609,0,0,1.6144,1.6177,1.6196,1.625,1.6278,1.631,1.6319,1.6352,1.6376,1.6401,1.6441,1.6465,1.6506,1.6546,1.6565,1.6566,1.6618,1.6608,1.6608,1.6611,1.6632,1.6634,1.6636,1.661,1.661,1.661,0,0,1.616,1.6189,1.6219,1.6247,1.6288,1.6313,1.632,1.6365,1.6382,1.6423,1.6442,1.6471,1.6529,1.6557,1.6578,1.6604,1.6617,1.6614,1.6616,1.6636,1.6638,1.664,1.6648,1.6651,1.6616,1.6616,1.6616,0,1.6155,1.6204,1.6233,1.6265,1.6288,1.6312,1.6342,1.6367,1.6418,1.6433,1.6434,1.6507,1.6535,1.6582,1.6588,1.6605,1.6613,1.6609,1.6636,1.6638,1.664,1.6648,1.6651,1.6616,1.6616,1.6616,1.6616,0,1.6195,1.6229,1.6248,1.6296,1.6321,1.6352,1.6385,1.6407,1.6423,1.6446,1.6487,1.6522,1.6563,1.6576,1.6592,1.6624,1.6623,1.6629,1.663,1.6641,1.6649,1.6653,1.6615,1.6615,1.6615,1.6615,0,0,1.6201,1.6264,1.627,1.6292,1.6339,1.6365,1.6397,1.6437,1.6455,1.6488,1.6515,1.6564,1.6569,1.6594,1.6613,1.6631,1.6647,1.6635,1.6636,1.6635,1.6684,1.6679,1.6682,1.6656,1.6657,1.6657,1.668,0,1.6223,1.6281,1.6307,1.6353,1.6384,1.6406,1.6433,1.6465,1.6488,1.6517,1.6542,1.6575,1.658,1.6595,1.6614,1.6641,1.6658,1.664,1.6681,1.6682,1.667,1.6687,1.6682,1.6702,1.6684,1.6685,1.6685,0,1.6257,1.6291,1.634,1.6382,1.6396,1.642,1.6458,1.6486,1.6522,1.6537,1.6564,1.6582,1.6615,1.6613,1.6659,1.6647,1.6665,1.6681,1.6682,1.6687,1.6684,1.6692,1.6709,1.6712,1.6691,1.669,1.669,0,1.6256,1.6313,1.6349,1.6367,1.6418,1.6434,1.6456,1.6492,1.6513,1.6547,1.6561,1.6597,1.6617,1.6645,1.6672,1.6668,1.6715,1.6716,1.6728,1.6727,1.6737,1.6736,1.6758,1.6749,1.6749,1.6749,1.6749,0,1.6278,1.6307,1.6349,1.6372,1.6404,1.6433,1.6465,1.6488,1.6519,1.6546,1.6567,1.6592,1.6626,1.6655,1.6676,1.6711,1.672,1.6733,1.6738,1.6731,1.6729,1.6743,1.6742,1.675,1.675,1.6749,1.6749,0,1.6282,1.6312,1.6353,1.6397,1.6409,1.6431,1.6468,1.649,1.6514,1.6547,1.6557,1.6593,1.6628,1.6658,1.6704,1.6718,1.6753,1.676,1.6741,1.6744,1.6755,1.6753,1.6786,1.6791,1.6779,1.6779,1.6779,0,1.6294,1.6317,1.6363,1.6383,1.6404,1.6435,1.6457,1.6487,1.6509,1.6551,1.6568,1.6604,1.6634,1.6689,1.6719,1.6754,1.6762,1.6771,1.6767,1.6759,1.6761,1.676,1.6762,1.6771,1.6771,1.6771,1.6771,0,1.6312,1.6326,1.6357,1.6393,1.6419,1.6449,1.6479,1.6494,1.6529,1.6552,1.6588,1.6612,1.6658,1.6693,1.6731,1.6754,1.6768,1.6771,1.6776,1.6769,1.6757,1.6763,1.6741,1.6771,1.6771,1.6771,1.6771,1.6771,1.6321,1.6342,1.6377,1.6411,1.6437,1.6464,1.6487,1.6513,1.6543,1.6583,1.6598,1.6635,1.6669,1.6721,1.6743,1.6772,1.6774,1.6781,1.6783,1.6784,1.6782,1.6752,1.6779,1.6779,1.6779,1.6779,1.6779,0,1.634,1.6363,1.6394,1.6436,1.6462,1.6473,1.6507,1.6528,1.656,1.659,1.662,1.666,1.6694,1.6727,1.6763,1.6779,1.6786,1.6787,1.6786,1.6791,1.6779,1.6771,1.6781,1.6781,1.6781,1.6781,1.6781,1.6781,1.6353,1.6388,1.6405,1.6453,1.6477,1.6513,1.6531,1.6556,1.6581,1.6625,1.6653,1.6674,1.6705,1.6743,1.6775,1.6783,1.6795,1.6795,1.6805,1.6793,1.6792,1.6792,1.6784,1.6797,1.6797,1.6815,1.6815,1.6815]}]]